Location: ??? ????
(38.0580°N, 23.1536°E)
Time: 14:36:33
(UTC+00:00)

BREEZE-M DEB (TANK) - Pass Details

Date: 13 December 2025
Orbit: 359 x 15939 km, 49.4° (Epoch: 17 January)

Event Time Altitude Azimuth Distance (km) Brightness Sun altitude
Rises 17:23:39 0° 295° (WNW) 10,781 9.7 -25.8°
Reaches altitude 10° 17:34:50 10° 300° (WNW) 7,097 8.5 -28.0°
Enters shadow 17:49:55 57° 10° (N) 1,374 4.0 -30.9°
